[[{"header":{"parameterUnit":"m.s-1","parameterCategory":1,"la1":30.2991,"la2":30.254,"lo1":-89.0895,"lo2":-89.0444,"dy":0.0017,"dx":0.0017,"nx":28,"ny":28,"refTime":"2025-11-23T09:00:00:Z","depth":0,"parameterNumber":2,"parameterNumberName":"U-component_of_WINDS"},"data":[0,0,0,0,0,0,0,0,0,0,0,0,0,0,0,0,0,0,0,0,0,0,0,0,0,0,0,0,0,0,0,0,0,0,0,0,0,0,0,0,0,0,0,0,0,0,0,0,0,0,0,0,0,0,0,0,0,0,-0.9622,-0.9621,0,-0.9567,-0.9567,-0.9566,-0.9576,-0.9577,-0.9578,-0.9578,-0.9517,-0.9515,-0.9512,0,0,0,0,0,0,0,0,0,0,0,0,0,-0.9729,-0.9727,-0.9622,-0.9621,-0.962,-0.9567,-0.9567,-0.9566,-0.9575,-0.9577,-0.9578,-0.9579,-0.9518,-0.9515,-0.9512,0,0,0,0,0,0,0,0,0,0,0,0,0,-0.9679,-0.9726,-0.9622,-0.9619,-0.9618,-0.9567,-0.9567,-0.9566,-0.9575,-0.9577,-0.9578,-0.9579,-0.9519,-0.9515,-0.9512,-0.9459,0,0,-0.95,-0.9498,0,0,0,0,0,0,0,0,-0.9682,-0.9675,-0.962,-0.9619,-0.9618,-0.958,-0.9582,-0.953,-0.9575,-0.9591,-0.9579,-0.958,-0.9536,-0.9531,-0.9518,-0.9456,-0.9453,-0.95,-0.9497,-0.9496,-0.9495,0,0,0,0,0,0,0,-0.9685,-0.9677,-0.96,-0.9619,-0.9618,-0.9619,-0.9613,-0.9572,-0.9556,-0.959,-0.9591,-0.9584,-0.9536,-0.9521,-0.9516,-0.9452,-0.95,-0.9496,-0.9494,-0.9492,-0.9342,-0.9341,0,0,0,0,0,0,-0.969,-0.968,-0.9602,-0.9598,-0.9654,-0.9615,-0.9609,-0.959,-0.9557,-0.9553,-0.9583,-0.9585,-0.9527,-0.9521,-0.9514,-0.9448,-0.9496,-0.9492,-0.949,-0.9344,-0.9342,-0.934,0,0,0,0,0,0,-0.9693,-0.9683,-0.9604,-0.9639,-0.9629,-0.9612,-0.9591,-0.9589,-0.9574,-0.9552,-0.9548,-0.9571,-0.9528,-0.952,-0.9472,-0.9446,-0.949,-0.9487,-0.9346,-0.9343,-0.9341,-0.9317,0,0,0,0,0,0,-0.9696,-0.9684,-0.9665,-0.9639,-0.9628,-0.9564,-0.9589,-0.9587,-0.9568,-0.957,-0.9539,-0.9536,-0.9529,-0.9478,-0.9469,-0.9442,-0.9484,-0.9348,-0.9345,-0.9342,-0.932,-0.9314,-0.9309,0,0,0,0,0,-0.9699,-0.966,-0.9664,-0.9654,-0.9604,-0.9563,-0.9556,-0.955,-0.9566,-0.9545,-0.9531,-0.9537,-0.9452,-0.9473,-0.9463,-0.9434,-0.935,-0.9346,-0.9342,-0.9323,-0.9316,-0.9309,0,0,0,0,0,0,-0.9681,-0.9656,-0.9661,-0.9612,-0.959,-0.9565,-0.9539,-0.9543,-0.9515,-0.9517,-0.951,-0.9503,-0.9454,-0.944,-0.9465,-0.9381,-0.9402,-0.9396,-0.9391,-0.9384,-0.9379,-0.9382,-0.9481,0,0,0,0,0,-0.9672,-0.9643,-0.9622,-0.958,-0.9569,-0.9556,-0.9538,-0.9536,-0.9512,-0.9502,-0.9484,-0.9459,-0.9426,-0.9405,-0.9374,-0.9319,-0.9311,-0.9295,-0.9289,-0.9285,-0.9279,-0.9246,-0.9238,-0.9327,-0.9328,-0.9328,0,0,-0.9651,-0.9634,-0.9616,-0.9576,-0.9559,-0.9527,-0.9548,-0.9514,-0.9489,-0.9496,-0.945,-0.9437,-0.9408,-0.9356,-0.9333,-0.9343,-0.9253,-0.928,-0.9276,-0.9273,-0.9242,-0.9233,-0.9226,-0.9325,-0.9325,-0.9326,0,0,-0.9597,-0.9582,-0.9546,-0.9528,-0.9502,-0.9494,-0.9485,-0.946,-0.9451,-0.9406,-0.941,-0.938,-0.9325,-0.9304,-0.9286,-0.9224,-0.9227,-0.9214,-0.9184,-0.9153,-0.9146,-0.914,-0.9115,-0.9107,-0.9209,-0.9209,-0.9209,0,-0.9574,-0.9528,-0.9526,-0.9491,-0.9472,-0.948,-0.9441,-0.9423,-0.9388,-0.9374,-0.9387,-0.9317,-0.9298,-0.9241,-0.9226,-0.9212,-0.92,-0.9216,-0.9148,-0.9141,-0.9135,-0.9112,-0.9103,-0.9207,-0.9207,-0.9207,-0.9208,0,-0.95,-0.9468,-0.9441,-0.9408,-0.9387,-0.9351,-0.9341,-0.9319,-0.9319,-0.9309,-0.9261,-0.924,-0.9203,-0.919,-0.9189,-0.9132,-0.9139,-0.915,-0.9171,-0.9125,-0.9103,-0.9094,-0.9205,-0.9205,-0.9206,-0.9206,0,0,-0.9431,-0.9398,-0.9388,-0.9373,-0.9345,-0.9319,-0.9282,-0.9249,-0.923,-0.9205,-0.9172,-0.9126,-0.9135,-0.9115,-0.9111,-0.9084,-0.9034,-0.9098,-0.9097,-0.9085,-0.8968,-0.8958,-0.8948,-0.9038,-0.9036,-0.9035,-0.8969,0,-0.9373,-0.931,-0.9306,-0.9248,-0.9217,-0.9223,-0.9191,-0.9169,-0.9159,-0.9129,-0.9117,-0.9083,-0.91,-0.9087,-0.9061,-0.9046,-0.901,-0.9051,-0.9004,-0.9002,-0.9009,-0.8937,-0.8927,-0.8866,-0.8961,-0.896,-0.8959,0,-0.9296,-0.927,-0.9209,-0.9185,-0.9172,-0.9143,-0.9112,-0.9085,-0.9059,-0.9054,-0.9031,-0.9032,-0.8991,-0.9016,-0.896,-0.8987,-0.8968,-0.8958,-0.8955,-0.8948,-0.8976,-0.8926,-0.8847,-0.8837,-0.8945,-0.8946,-0.8947,0,-0.9249,-0.9199,-0.9156,-0.9143,-0.9115,-0.9094,-0.908,-0.9057,-0.9037,-0.9009,-0.8995,-0.8963,-0.8944,-0.8918,-0.8908,-0.8928,-0.8851,-0.8876,-0.8843,-0.8843,-0.8824,-0.8825,-0.8739,-0.8816,-0.8816,-0.8817,-0.8817,0,-0.9182,-0.9144,-0.9135,-0.9107,-0.9064,-0.9061,-0.9017,-0.9005,-0.8984,-0.8953,-0.8957,-0.8928,-0.8919,-0.8887,-0.8879,-0.8832,-0.8824,-0.8817,-0.8814,-0.8815,-0.8815,-0.88,-0.8803,-0.8814,-0.8815,-0.8815,-0.8816,0,-0.9122,-0.9114,-0.9067,-0.9044,-0.9038,-0.9007,-0.8986,-0.8959,-0.895,-0.8911,-0.8901,-0.8886,-0.8849,-0.8838,-0.8793,-0.8787,-0.8731,-0.8734,-0.874,-0.8739,-0.8706,-0.8708,-0.8605,-0.859,-0.868,-0.8679,-0.8678,0,-0.9079,-0.905,-0.9024,-0.9005,-0.8991,-0.896,-0.894,-0.8935,-0.8913,-0.8882,-0.8858,-0.8823,-0.8793,-0.8733,-0.8717,-0.8682,-0.8682,-0.8649,-0.8677,-0.8678,-0.8679,-0.868,-0.8675,-0.8642,-0.8641,-0.8641,-0.864,0,-0.9002,-0.9,-0.8972,-0.8942,-0.8918,-0.8894,-0.8871,-0.8854,-0.8846,-0.8821,-0.8784,-0.8761,-0.8716,-0.8679,-0.8644,-0.8628,-0.8631,-0.8632,-0.8622,-0.862,-0.8624,-0.8619,-0.8723,-0.8633,-0.8634,-0.8634,-0.8635,-0.8635,-0.8947,-0.8921,-0.8899,-0.8867,-0.885,-0.8828,-0.8801,-0.8789,-0.8759,-0.8723,-0.8722,-0.8681,-0.8655,-0.8609,-0.8591,-0.8558,-0.8567,-0.8554,-0.855,-0.8546,-0.8542,-0.8632,-0.8552,-0.8552,-0.8552,-0.8552,-0.8552,0,-0.8869,-0.8856,-0.8827,-0.8795,-0.8769,-0.8778,-0.8752,-0.8729,-0.8694,-0.8671,-0.8643,-0.8599,-0.8564,-0.8545,-0.8509,-0.8485,-0.8486,-0.8476,-0.8476,-0.8472,-0.8537,-0.8548,-0.8476,-0.8476,-0.8476,-0.8476,-0.8476,-0.8476,-0.8825,-0.8781,-0.8776,-0.8723,-0.8709,-0.8671,-0.8655,-0.8634,-0.8616,-0.8568,-0.8539,-0.8528,-0.8505,-0.8468,-0.8435,-0.843,-0.8415,-0.8404,-0.8399,-0.846,-0.8467,-0.8475,-0.8485,-0.8401,-0.8401,-0.8337,-0.8337,-0.8336]},{"header":{"parameterUnit":"m.s-1","parameterCategory":1,"la1":30.2991,"la2":30.254,"lo1":-89.0895,"lo2":-89.0444,"dy":0.0017,"dx":0.0017,"nx":28,"ny":28,"refTime":"2025-11-23T09:00:00:Z","depth":0,"parameterNumber":3,"parameterNumberName":"V-component_of_WINDS"},"data":[0,0,0,0,0,0,0,0,0,0,0,0,0,0,0,0,0,0,0,0,0,0,0,0,0,0,0,0,0,0,0,0,0,0,0,0,0,0,0,0,0,0,0,0,0,0,0,0,0,0,0,0,0,0,0,0,0,0,-3.6018,-3.602,0,-3.6239,-3.6242,-3.6244,-3.6408,-3.6409,-3.6411,-3.6412,-3.6629,-3.6633,-3.6637,0,0,0,0,0,0,0,0,0,0,0,0,0,-3.5728,-3.5732,-3.6017,-3.602,-3.6023,-3.6239,-3.6242,-3.6245,-3.6408,-3.6409,-3.6411,-3.6413,-3.6627,-3.6633,-3.6638,0,0,0,0,0,0,0,0,0,0,0,0,0,-3.5892,-3.5734,-3.6017,-3.613,-3.6143,-3.6238,-3.6242,-3.6246,-3.6407,-3.6409,-3.6412,-3.6414,-3.6626,-3.6632,-3.6639,-3.6636,0,0,-3.6659,-3.6662,0,0,0,0,0,0,0,0,-3.5882,-3.5902,-3.6111,-3.6123,-3.6137,-3.6298,-3.622,-3.6376,-3.6407,-3.6306,-3.6412,-3.6415,-3.6516,-3.6532,-3.6569,-3.6646,-3.6655,-3.6659,-3.6663,-3.6666,-3.6668,0,0,0,0,0,0,0,-3.5871,-3.5893,-3.6105,-3.6114,-3.6129,-3.6168,-3.6194,-3.625,-3.6396,-3.6315,-3.6328,-3.6352,-3.6524,-3.6562,-3.6575,-3.6659,-3.6659,-3.6665,-3.6669,-3.6672,-3.6747,-3.6745,0,0,0,0,0,0,-3.5843,-3.5883,-3.6098,-3.6112,-3.6013,-3.6171,-3.62,-3.6244,-3.6396,-3.6422,-3.635,-3.6359,-3.6549,-3.6567,-3.6583,-3.6591,-3.6666,-3.6672,-3.6676,-3.6749,-3.6747,-3.6745,0,0,0,0,0,0,-3.5836,-3.586,-3.6089,-3.6001,-3.6033,-3.6174,-3.6222,-3.6247,-3.6286,-3.6423,-3.6449,-3.6363,-3.6552,-3.6574,-3.6623,-3.6601,-3.6675,-3.6681,-3.6751,-3.6748,-3.6746,-3.6605,0,0,0,0,0,0,-3.5827,-3.5857,-3.5858,-3.6,-3.6037,-3.6126,-3.6221,-3.625,-3.6298,-3.6312,-3.6441,-3.6465,-3.6555,-3.6612,-3.6629,-3.6611,-3.6687,-3.6754,-3.675,-3.6747,-3.6612,-3.6598,-3.6585,0,0,0,0,0,-3.5816,-3.5807,-3.5858,-3.5883,-3.6043,-3.6125,-3.6146,-3.6253,-3.6295,-3.6297,-3.6386,-3.646,-3.6601,-3.6616,-3.6637,-3.662,-3.6756,-3.6751,-3.6747,-3.6618,-3.6601,-3.6586,0,0,0,0,0,0,-3.5655,-3.5828,-3.5885,-3.5923,-3.6009,-3.6152,-3.6158,-3.6231,-3.6303,-3.6312,-3.644,-3.6468,-3.6503,-3.6567,-3.658,-3.6627,-3.6688,-3.6687,-3.6583,-3.6567,-3.6554,-3.6536,-3.6692,0,0,0,0,0,-3.5625,-3.568,-3.5827,-3.5845,-3.5886,-3.6014,-3.6054,-3.613,-3.6222,-3.6258,-3.635,-3.6434,-3.6498,-3.6537,-3.6603,-3.6624,-3.6654,-3.6623,-3.6609,-3.6597,-3.6594,-3.6611,-3.6599,-3.673,-3.673,-3.673,0,0,-3.5561,-3.5662,-3.5688,-3.5816,-3.5891,-3.5943,-3.6043,-3.6093,-3.6133,-3.6265,-3.6318,-3.6388,-3.6491,-3.6526,-3.6546,-3.658,-3.6566,-3.6592,-3.6581,-3.6585,-3.6605,-3.6592,-3.6581,-3.6727,-3.6727,-3.6728,0,0,-3.5471,-3.5554,-3.558,-3.5654,-3.5769,-3.5855,-3.5861,-3.5996,-3.6049,-3.6105,-3.6206,-3.6254,-3.636,-3.643,-3.6478,-3.642,-3.6491,-3.6438,-3.6366,-3.638,-3.637,-3.6361,-3.634,-3.633,-3.6435,-3.6435,-3.6435,0,-3.5376,-3.5461,-3.5582,-3.5628,-3.5681,-3.5809,-3.5835,-3.59,-3.6028,-3.6061,-3.6099,-3.6238,-3.6315,-3.6369,-3.6355,-3.6391,-3.6401,-3.6422,-3.6363,-3.6355,-3.6349,-3.6329,-3.6321,-3.6428,-3.6428,-3.6429,-3.643,0,-3.5339,-3.5396,-3.5403,-3.5529,-3.5583,-3.5617,-3.5742,-3.5782,-3.5855,-3.5937,-3.5992,-3.6092,-3.618,-3.62,-3.6269,-3.6264,-3.6282,-3.6339,-3.6403,-3.6327,-3.6311,-3.6304,-3.6417,-3.642,-3.6422,-3.6424,0,0,-3.5148,-3.5345,-3.5345,-3.5405,-3.5543,-3.5588,-3.563,-3.5721,-3.5752,-3.5838,-3.5874,-3.5964,-3.602,-3.6076,-3.6155,-3.6168,-3.6115,-3.6225,-3.6229,-3.6199,-3.6115,-3.6068,-3.6058,-3.6165,-3.6164,-3.6163,-3.6106,0,-3.5079,-3.5163,-3.5275,-3.532,-3.5375,-3.5499,-3.5536,-3.5623,-3.5701,-3.5757,-3.5843,-3.5905,-3.5974,-3.6009,-3.6028,-3.6117,-3.6099,-3.6123,-3.6197,-3.6198,-3.6165,-3.605,-3.6001,-3.5941,-3.61,-3.6099,-3.6099,0,-3.5007,-3.509,-3.5142,-3.5279,-3.5306,-3.5336,-3.5431,-3.5484,-3.5586,-3.5642,-3.5706,-3.5794,-3.5842,-3.5902,-3.597,-3.5983,-3.6021,-3.607,-3.607,-3.6078,-3.6141,-3.6053,-3.5925,-3.5915,-3.609,-3.6091,-3.6091,0,-3.4861,-3.4987,-3.5035,-3.5082,-3.5242,-3.5261,-3.5328,-3.5433,-3.5482,-3.5564,-3.5596,-3.5681,-3.5726,-3.5789,-3.5896,-3.593,-3.5952,-3.602,-3.5997,-3.5994,-3.5993,-3.5991,-3.5867,-3.6021,-3.6021,-3.6021,-3.6021,0,-3.477,-3.4796,-3.4972,-3.5,-3.5034,-3.5163,-3.5192,-3.527,-3.5363,-3.5408,-3.5521,-3.556,-3.5701,-3.5756,-3.584,-3.5883,-3.5903,-3.5948,-3.5969,-3.5936,-3.593,-3.596,-3.5966,-3.6019,-3.6019,-3.602,-3.602,0,-3.4611,-3.473,-3.479,-3.494,-3.4978,-3.4996,-3.5123,-3.5155,-3.5242,-3.5298,-3.5318,-3.5454,-3.5525,-3.564,-3.5743,-3.58,-3.5827,-3.5865,-3.5793,-3.5806,-3.5776,-3.5776,-3.5665,-3.5656,-3.5816,-3.5815,-3.5813,0,-3.4543,-3.4567,-3.4721,-3.4761,-3.4826,-3.4888,-3.494,-3.5069,-3.5118,-3.5239,-3.5255,-3.5337,-3.5408,-3.5516,-3.5622,-3.5702,-3.5741,-3.5697,-3.5753,-3.572,-3.5739,-3.5735,-3.5737,-3.5682,-3.568,-3.5678,-3.5676,0,-3.4409,-3.4469,-3.4541,-3.4634,-3.4694,-3.4773,-3.4857,-3.4882,-3.503,-3.5078,-3.5156,-3.5211,-3.5321,-3.5399,-3.5495,-3.5562,-3.5642,-3.5659,-3.5657,-3.5622,-3.5579,-3.5601,-3.5755,-3.5659,-3.5661,-3.5662,-3.5663,-3.5664,-3.4293,-3.4321,-3.4435,-3.4512,-3.459,-3.4667,-3.4705,-3.48,-3.4867,-3.4969,-3.5041,-3.5112,-3.5216,-3.5355,-3.5418,-3.5474,-3.551,-3.5508,-3.5507,-3.5504,-3.5491,-3.5573,-3.5492,-3.5493,-3.5494,-3.5494,-3.5495,0,-3.4164,-3.4245,-3.4315,-3.4432,-3.4492,-3.4569,-3.4667,-3.4711,-3.4775,-3.4867,-3.4937,-3.5026,-3.5104,-3.5218,-3.5304,-3.5328,-3.5367,-3.5346,-3.5343,-3.5357,-3.5455,-3.5447,-3.5313,-3.5313,-3.5313,-3.5313,-3.5313,-3.5313,-3.4104,-3.4155,-3.4228,-3.432,-3.4401,-3.4475,-3.4524,-3.4596,-3.467,-3.4766,-3.4833,-3.4909,-3.501,-3.5105,-3.518,-3.5212,-3.5237,-3.5203,-3.5246,-3.5334,-3.535,-3.5366,-3.5359,-3.5209,-3.5208,-3.5144,-3.5143,-3.5142]}]]